GW4735 Weather Reports


time (UTC)temp
C
wind
direction
speed
KPH
gust
KPH
rain 1hr
cm
rain 24hr
cm
rain mn
cm
humidity
%
barometer
mb
20260508164550 21 41 0.0 4.8 0.00 0.00 0.00 35 1017.3
20260508163111 21 205 1.6 6.4 0.00 0.00 0.00 31 1017.4
20260508161554 19 94 1.6 12.9 0.00 0.00 0.00 36 1017.6
20260508160051 19 165 1.6 6.4 0.00 0.00 0.00 32 1017.8
20260508154554 18 51 3.2 11.3 0.00 0.00 0.00 36 1018.0
20260508153056 18 67 1.6 9.7 0.00 0.00 0.00 40 1018.1
20260508151552 20 260 0.0 6.4 0.00 0.00 0.00 47 1018.2
20260508150056 17 0 0.0 6.4 0.00 0.00 0.00 49 1018.4
20260508144552 18 258 0.0 8.0 0.00 0.00 0.00 51 1018.5
20260508143051 17 20 1.6 6.4 0.00 0.00 0.00 48 1018.5
20260508141558 17 0 1.6 4.8 0.00 0.00 0.00 52 1018.4
20260508140050 17 328 1.6 4.8 0.00 0.00 0.00 51 1018.4
20260508134557 17 289 0.0 6.4 0.00 0.03 0.00 59 1018.3
20260508133052 16 0 0.0 3.2 0.00 0.03 0.00 59 1018.3
20260508131557 16 279 0.0 3.2 0.00 0.03 0.00 62 1018.3
20260508130105 15 0 0.0 3.2 0.00 0.03 0.00 69 1018.2
20260508124549 13 0 0.0 4.8 0.00 0.20 0.00 74 1018.2
20260508123052 13 223 0.0 1.6 0.00 0.20 0.00 75 1018.1
20260508121554 12 0 0.0 6.4 0.00 0.20 0.00 82 1018.0
20260508120050 11 0 0.0 1.6 0.00 0.20 0.00 87 1017.8
20260508114549 9 0 0.0 1.6 0.00 0.53 0.00 92 1017.6
20260508113053 8 0 0.0 0.0 0.00 0.53 0.00 97 1017.2
20260508111551 6 0 0.0 0.0 0.00 0.53 0.00 97 1017.0
20260508110105 5 0 0.0 0.0 0.00 0.53 0.00 96 1016.9
20260508104550 5 0 0.0 0.0 0.00 0.53 0.00 96 1016.6
20260508103050 5 0 0.0 0.0 0.00 0.53 0.00 96 1016.2
20260508101555 5 0 0.0 0.0 0.00 0.53 0.00 96 1015.9
20260508100051 5 0 0.0 0.0 0.00 0.53 0.00 96 1015.9
20260508094556 5 0 0.0 0.0 0.00 0.53 0.00 96 1015.7
20260508093058 5 0 0.0 0.0 0.00 0.53 0.00 96 1015.7
20260508091556 6 0 0.0 3.2 0.00 0.53 0.00 96 1015.6
20260508090106 6 23 0.0 0.0 0.00 0.53 0.00 95 1015.5
20260508084553 6 0 0.0 0.0 0.00 0.53 0.00 95 1015.5
20260508083053 6 0 0.0 0.0 0.00 0.53 0.00 95 1015.5
20260508081558 6 0 0.0 0.0 0.00 0.53 0.00 95 1015.4
20260508080053 6 0 0.0 0.0 0.00 0.53 0.00 95 1015.2
20260508074550 6 0 0.0 1.6 0.00 0.53 0.00 95 1015.1
20260508073053 6 0 0.0 0.0 0.00 0.53 0.00 95 1015.0
20260508071552 7 0 0.0 1.6 0.00 0.53 0.00 95 1015.1
20260508070050 7 0 0.0 3.2 0.00 0.53 0.00 95 1015.0
20260508064550 7 0 0.0 0.0 0.00 0.53 0.00 95 1014.8
20260508063054 7 0 0.0 3.2 0.00 0.53 0.00 95 1014.7
20260508061550 7 25 0.0 4.8 0.00 0.53 0.00 95 1014.7
20260508060049 7 0 0.0 6.4 0.00 0.53 0.00 95 1014.9
20260508054609 7 0 0.0 1.6 0.00 0.71 0.00 95 1014.7
20260508053049 7 0 0.0 1.6 0.00 0.71 0.00 95 1014.6
20260508051552 7 0 0.0 1.6 0.00 0.71 0.00 94 1014.4
20260508050050 8 0 0.0 0.0 0.00 0.71 0.00 94 1014.4
20260508044601 8 0 0.0 1.6 0.00 0.79 0.00 93 1014.3
20260508043053 8 0 0.0 0.0 0.00 0.79 0.00 93 1014.3
20260508041558 8 0 0.0 0.0 0.00 0.79 0.00 93 1014.3
20260508040056 8 0 0.0 1.6 0.00 0.79 0.00 93 1014.2
20260508034601 8 0 0.0 1.6 0.00 0.79 0.79 92 1014.2
20260508033052 9 0 0.0 3.2 0.00 0.79 0.79 92 1014.2
20260508031558 9 0 0.0 0.0 0.00 0.79 0.79 91 1014.0
20260508030111 10 0 0.0 0.0 0.00 0.79 0.79 91 1014.0
20260508024553 10 0 0.0 0.0 0.00 0.89 0.79 91 1013.9
20260508023047 10 0 0.0 0.0 0.00 0.89 0.79 89 1013.7
20260508021554 11 0 0.0 1.6 0.00 0.89 0.79 89 1013.7
20260508020050 11 0 0.0 0.0 0.00 0.89 0.79 87 1013.4
20260508014550 11 0 0.0 0.0 0.00 0.99 0.79 84 1013.1
20260508013050 12 0 0.0 1.6 0.00 0.99 0.79 82 1012.7
20260508011557 12 0 0.0 0.0 0.00 0.99 0.79 79 1012.3
20260508010050 13 0 0.0 0.0 0.00 0.99 0.79 76 1012.2
20260508004551 14 0 0.0 1.6 0.00 1.24 0.79 72 1012.1
20260508003101 15 0 0.0 1.6 0.00 1.24 0.79 66 1011.8
20260508001554 16 323 1.6 9.7 0.00 1.24 0.79 63 1011.7
20260508000052 16 285 8.0 16.1 0.00 1.24 0.79 61 1011.6
20260507234550 17 252 4.8 19.3 0.00 1.27 0.79 59 1011.6
20260507233043 18 0 3.2 19.3 0.00 1.27 0.79 66 1011.4
20260507231557 18 346 3.2 11.3 0.00 1.27 0.79 67 1011.3
20260507230054 18 0 1.6 9.7 0.00 1.27 0.79 69 1010.9
20260507224600 18 257 3.2 6.4 0.00 1.30 0.79 75 1010.6
20260507223051 18 41 3.2 9.7 0.00 1.30 0.79 82 1010.1
20260507221550 18 108 1.6 11.3 0.00 1.30 0.79 83 1009.9
20260507220049 18 0 0.0 14.5 0.00 1.30 0.79 85 1009.8
20260507214553 18 67 3.2 20.9 0.00 1.30 0.79 85 1009.6
20260507213051 18 319 3.2 12.9 0.00 1.30 0.79 85 1009.3
20260507211551 18 20 4.8 16.1 0.00 1.30 0.79 86 1009.1
20260507210115 18 36 3.2 16.1 0.00 1.30 0.79 86 1009.0
20260507204557 18 301 8.0 17.7 0.00 1.30 0.79 85 1008.5
20260507203056 18 70 3.2 17.7 0.00 1.30 0.79 85 1008.5
20260507201548 20 139 3.2 20.9 0.00 1.30 0.79 81 1008.1
20260507200055 22 90 6.4 20.9 0.00 1.30 0.79 77 1007.8
20260507194549 26 22 3.2 17.7 0.00 1.30 0.79 66 1007.6
20260507193109 25 26 6.4 17.7 0.00 1.30 0.79 63 1007.5
20260507191557 24 344 4.8 12.9 0.00 1.30 0.79 67 1007.8
20260507190047 24 341 3.2 9.7 0.00 1.30 0.79 71 1007.9
20260507184550 26 97 1.6 4.8 0.00 1.30 0.79 66 1007.6
20260507183059 26 233 1.6 4.8 0.00 1.30 0.79 70 1007.9
20260507181552 26 201 3.2 6.4 0.00 1.30 0.79 64 1007.9
20260507180049 26 216 0.0 8.0 0.00 1.30 0.79 63 1008.0
20260507174546 25 25 4.8 12.9 0.00 1.30 0.79 67 1008.4
20260507173123 25 355 1.6 8.0 0.00 1.30 0.79 68 1008.2
20260507171551 25 124 1.6 8.0 0.00 1.30 0.79 72 1008.7
20260507170053 24 248 1.6 6.4 0.00 1.30 0.79 73 1008.8